This demonstration page uses our WeatherBlox Daily Observations layout. Learn more.

Left ArrowRight Arrow

39.01783, -85.05884

Hourly Observations for September 5, 2018

Temp ( °F °C ) Dew Point ( °F °C ) Humidity (%) Winds ( mph kmh ) Pressure ( in mb ) Visibility ( mi km ) Precip ( " mm )
12:52 am 00:52 Mostly Clear 77 25 72 22.2 85 85 N N/A 30.16 1021 10 16 N/A
1:52 am 01:52 Partly Cloudy 73 22.8 71 21.7 94 94 SE 3 6 30.15 1021 10 16 N/A
2:52 am 02:52 Clear 76 24.4 72 22.2 88 88 N N/A 30.14 1021 10 16 N/A
3:52 am 03:52 Mostly Clear 77 25 71 21.7 82 82 N N/A 30.14 1021 10 16 N/A
4:52 am 04:52 Mostly Clear 75 23.9 71 21.7 88 88 N N/A 30.14 1021 10 16 N/A
5:52 am 05:52 Clear 76 24.4 72 22.2 88 88 NNW 3 6 30.14 1021 10 16 N/A
6:52 am 06:52 Mostly Clear 73 22.8 72 22.2 96 96 N N/A 30.16 1021 10 16 N/A
7:52 am 07:52 Mostly Sunny 74 23.3 72 22.2 94 94 N N/A 30.16 1022 10 16 N/A
8:52 am 08:52 Partly Cloudy 79 26.1 73 22.8 82 82 N N/A 30.17 1022 10 16 N/A
9:52 am 09:52 Mostly Cloudy 83 28.3 72 22.2 70 70 N N/A 30.17 1022 10 16 N/A
10:52 am 10:52 Mostly Cloudy 87 30.6 72 22.2 61 61 N N/A 30.18 1022 10 16 N/A
11:52 am 11:52 Mostly Cloudy 89 31.7 73 22.8 59 59 WNW 6 9 30.17 1022 10 16 N/A
12:52 pm 12:52 Mostly Cloudy 88 31.1 73 22.8 61 61 W 6 9 30.16 1022 10 16 N/A
1:52 pm 13:52 Mostly Cloudy 89 31.7 71 21.7 55 55 SSW 5 7 30.15 1021 10 16 N/A
2:52 pm 14:52 Mostly Cloudy 90 32.2 73 22.8 58 58 SSW 7 11 30.14 1021 10 16 N/A
3:52 pm 15:52 Mostly Cloudy 90 32.2 73 22.8 58 58 WSW 6 9 30.11 1020 10 16 N/A
4:25 pm 16:25 Mostly Cloudy with Thunderstorms 90 32.2 72 22.2 56 56 SSW 9 15 30.09 1019 10 16 N/A
4:52 pm 16:52 Mostly Cloudy with Nearby Thunderstorms 88 31.1 74 23.3 63 63 SSW 9 15 30.10 1019 10 16 N/A
5:04 pm 17:04 Mostly Cloudy with Thunderstorms 89 31.7 74 23.3 61 61 S 12 19 30.09 1019 10 16 N/A
5:52 pm 17:52 Cloudy with Thunderstorms 87 30.6 73 22.8 63 63 S 9 15 30.11 1020 10 16 N/A
6:31 pm 18:31 Cloudy with Thunderstorms 81 27.2 69 20.6 67 67 ENE 18 30 30.15 1021 10 16 N/A
6:52 pm 18:52 Cloudy with Thunderstorms 77 25 68 20 74 74 N 16 26 30.15 1021 10 16 N/A
6:59 pm 18:59 Cloudy with Thunderstorms 78 25.6 68 20 71 71 N 13 20 30.15 1021 10 16 N/A
7:52 pm 19:52 Cloudy with Thunderstorms 74 23.3 68 20 82 82 N 15 24 30.15 1021 10 16 0.02 0.51
8:00 pm 20:00 Cloudy with Thunderstorms 75 23.9 68 20 79 79 N 12 19 30.15 1021 10 16 N/A
8:10 pm 20:10 Cloudy 76 24.4 68 20 77 77 N 6 9 30.15 1021 10 16 N/A
8:52 pm 20:52 Mostly Cloudy 72 22.2 70 21.1 94 94 NNW 3 6 30.17 1022 10 16 N/A
9:52 pm 21:52 Mostly Cloudy 72 22.2 70 21.1 94 94 N N/A 30.17 1022 10 16 N/A
10:52 pm 22:52 Mostly Cloudy 71 21.7 70 21.1 96 96 S 6 9 30.17 1022 9 14 N/A
11:52 pm 23:52 Cloudy 72 22.2 70 21.1 94 94 SSW 3 6 30.17 1022 10 16 N/A

Powered by AerisWeather